[[{"header":{"parameterUnit":"m.s-1","parameterCategory":1,"la1":30.2991,"la2":30.254,"lo1":-89.0895,"lo2":-89.0444,"dy":0.0017,"dx":0.0017,"nx":28,"ny":28,"refTime":"2023-10-07T21:00:00:Z","depth":0,"parameterNumber":2,"parameterNumberName":"U-component_of_WINDS"},"data":[0,0,0,0,0,0,0,0,0,0,0,0,0,0,0,0,0,0,0,0,0,0,0,0,0,0,0,0,0,0,0,0,0,0,0,0,0,0,0,0,0,0,0,0,0,0,0,0,0,0,0,0,0,0,0,0,0,0,-1.969,-1.969,0,-1.9737,-1.9738,-1.9738,-1.971,-1.9708,-1.9707,-1.9706,-1.9754,-1.9756,-1.9759,0,0,0,0,0,0,0,0,0,0,0,0,0,-1.9573,-1.9575,-1.969,-1.969,-1.9691,-1.9737,-1.9738,-1.9738,-1.971,-1.9708,-1.9707,-1.9705,-1.9753,-1.9756,-1.9759,0,0,0,0,0,0,0,0,0,0,0,0,0,-1.9622,-1.9576,-1.9689,-1.9682,-1.9682,-1.9737,-1.9738,-1.9739,-1.971,-1.9708,-1.9706,-1.9704,-1.9752,-1.9756,-1.976,-1.9824,0,0,-1.9771,-1.9773,0,0,0,0,0,0,0,0,-1.9619,-1.9626,-1.9683,-1.9683,-1.9683,-1.9715,-1.9714,-1.9767,-1.9711,-1.9699,-1.9706,-1.9703,-1.9743,-1.9747,-1.9761,-1.9827,-1.9829,-1.9772,-1.9774,-1.9776,-1.9777,0,0,0,0,0,0,0,-1.9616,-1.9624,-1.9708,-1.9683,-1.9683,-1.9676,-1.9681,-1.9724,-1.9732,-1.97,-1.9698,-1.9704,-1.9742,-1.9757,-1.9762,-1.9829,-1.9772,-1.9775,-1.9777,-1.9779,-1.995,-1.9953,0,0,0,0,0,0,-1.9613,-1.9622,-1.9707,-1.971,-1.9645,-1.968,-1.9685,-1.9707,-1.9731,-1.9733,-1.9706,-1.9703,-1.9751,-1.9757,-1.9763,-1.9841,-1.9776,-1.9779,-1.9781,-1.9948,-1.9951,-1.9953,0,0,0,0,0,0,-1.9611,-1.9621,-1.9705,-1.9665,-1.9675,-1.9684,-1.9709,-1.9709,-1.9724,-1.9736,-1.9737,-1.972,-1.975,-1.9758,-1.9809,-1.9842,-1.9781,-1.9784,-1.9945,-1.9949,-1.9952,-1.9996,0,0,0,0,0,0,-1.9608,-1.962,-1.9646,-1.9666,-1.9678,-1.9751,-1.9711,-1.9711,-1.973,-1.9727,-1.9749,-1.9751,-1.9749,-1.9804,-1.9813,-1.9846,-1.9787,-1.9943,-1.9947,-1.9951,-1.9992,-2.0001,-2.0008,0,0,0,0,0,-1.9603,-1.9656,-1.9647,-1.9657,-1.9709,-1.9753,-1.9759,-1.9757,-1.9733,-1.9758,-1.9766,-1.975,-1.9837,-1.9809,-1.982,-1.9854,-1.9941,-1.9946,-1.9951,-1.9989,-1.9999,-2.0008,0,0,0,0,0,0,-1.964,-1.9659,-1.9649,-1.971,-1.973,-1.9748,-1.978,-1.9768,-1.9795,-1.9791,-1.9785,-1.9791,-1.9845,-1.9854,-1.9824,-1.9918,-1.9885,-1.9892,-1.991,-1.992,-1.9928,-1.9925,-1.9791,0,0,0,0,0,-1.9654,-1.9689,-1.9703,-1.9756,-1.9766,-1.9771,-1.979,-1.9786,-1.9807,-1.9815,-1.9827,-1.9847,-1.9879,-1.99,-1.993,-1.9993,-1.9997,-2.0022,-2.003,-2.0036,-2.0043,-2.0077,-2.0088,-1.997,-1.997,-1.997,0,0,-1.9686,-1.9701,-1.9723,-1.9763,-1.9778,-1.9814,-1.9779,-1.9818,-1.9844,-1.9821,-1.9871,-1.988,-1.9902,-1.996,-1.9985,-1.9969,-2.0077,-2.0043,-2.0048,-2.0051,-2.0083,-2.0095,-2.0105,-1.9973,-1.9973,-1.9972,0,0,-1.9762,-1.9776,-1.9821,-1.9837,-1.986,-1.9863,-1.9874,-1.9893,-1.9899,-1.9948,-1.9932,-1.9962,-2.0017,-2.0034,-2.0049,-2.0129,-2.0116,-2.0139,-2.0182,-2.0215,-2.0225,-2.0233,-2.0262,-2.0272,-2.0146,-2.0146,-2.0146,0,-1.9798,-1.9851,-1.9846,-1.9886,-1.9904,-1.9885,-1.993,-1.9946,-1.9977,-1.999,-1.9971,-2.0039,-2.0053,-2.0114,-2.0134,-2.0147,-2.0159,-2.0137,-2.0224,-2.0232,-2.024,-2.0267,-2.0278,-2.0148,-2.0148,-2.0148,-2.0148,0,-1.9894,-1.9931,-1.9964,-1.9996,-2.0018,-2.006,-2.0061,-2.0084,-2.0077,-2.0082,-2.0132,-2.0148,-2.018,-2.0194,-2.0188,-2.0254,-2.0243,-2.0224,-2.0191,-2.0254,-2.028,-2.029,-2.0152,-2.0151,-2.0151,-2.015,0,0,-1.9996,-2.0023,-2.0035,-2.0049,-2.0073,-2.0101,-2.0142,-2.0174,-2.0193,-2.0215,-2.025,-2.0296,-2.0278,-2.0296,-2.0291,-2.032,-2.0383,-2.0297,-2.0298,-2.0313,-2.0457,-2.0472,-2.0484,-2.0373,-2.0375,-2.0377,-2.0455,0,-2.0073,-2.0146,-2.0142,-2.021,-2.0244,-2.0225,-2.0261,-2.0279,-2.0284,-2.0313,-2.0318,-2.0351,-2.0324,-2.0335,-2.0363,-2.0369,-2.0412,-2.0364,-2.0405,-2.0407,-2.0402,-2.0498,-2.0514,-2.0587,-2.0465,-2.0467,-2.0468,0,-2.0174,-2.0199,-2.0271,-2.0289,-2.0303,-2.0335,-2.0364,-2.0392,-2.0411,-2.0413,-2.0432,-2.0422,-2.0463,-2.0428,-2.0484,-2.0452,-2.0468,-2.0474,-2.0476,-2.0481,-2.0442,-2.0506,-2.061,-2.0622,-2.0484,-2.0482,-2.0481,0,-2.0241,-2.0293,-2.0343,-2.0355,-2.0377,-2.04,-2.0411,-2.0428,-2.0447,-2.0472,-2.0484,-2.0513,-2.0529,-2.0551,-2.0549,-2.0524,-2.0607,-2.0571,-2.0609,-2.0609,-2.0629,-2.0628,-2.0738,-2.0638,-2.0637,-2.0637,-2.0637,0,-2.0329,-2.0374,-2.0374,-2.0404,-2.0453,-2.0448,-2.0496,-2.0504,-2.0519,-2.0551,-2.0535,-2.0565,-2.056,-2.059,-2.0588,-2.0635,-2.0642,-2.0644,-2.0644,-2.0647,-2.0646,-2.0658,-2.0654,-2.064,-2.0639,-2.0639,-2.0638,0,-2.0414,-2.0415,-2.0468,-2.0484,-2.0489,-2.0525,-2.0539,-2.0567,-2.057,-2.061,-2.0619,-2.0623,-2.0657,-2.0657,-2.0695,-2.0694,-2.0752,-2.0745,-2.0746,-2.0745,-2.0783,-2.078,-2.0906,-2.0922,-2.081,-2.0811,-2.0812,0,-2.047,-2.0504,-2.0524,-2.0544,-2.0556,-2.0588,-2.0607,-2.0602,-2.0623,-2.0647,-2.0673,-2.0705,-2.0731,-2.0785,-2.0792,-2.0821,-2.0815,-2.0857,-2.0819,-2.0821,-2.0817,-2.0815,-2.0818,-2.0865,-2.0866,-2.0867,-2.0868,0,-2.0571,-2.057,-2.0598,-2.0627,-2.0651,-2.0673,-2.0694,-2.0711,-2.0708,-2.0732,-2.0766,-2.0786,-2.0825,-2.0857,-2.0885,-2.0894,-2.0881,-2.088,-2.089,-2.0894,-2.0893,-2.0895,-2.0767,-2.0877,-2.0876,-2.0876,-2.0875,-2.0875,-2.0644,-2.0673,-2.0691,-2.0723,-2.0738,-2.0758,-2.0785,-2.0791,-2.082,-2.0852,-2.0847,-2.0885,-2.0902,-2.0938,-2.095,-2.098,-2.0965,-2.098,-2.0984,-2.0988,-2.0993,-2.0888,-2.0985,-2.0984,-2.0984,-2.0984,-2.0984,0,-2.0744,-2.0755,-2.0784,-2.0814,-2.0839,-2.0823,-2.0845,-2.0867,-2.0901,-2.0918,-2.0944,-2.0983,-2.1014,-2.1022,-2.1051,-2.1073,-2.1068,-2.1081,-2.108,-2.1083,-2.1004,-2.0992,-2.1085,-2.1085,-2.1085,-2.1085,-2.1085,-2.1085,-2.0799,-2.0848,-2.0849,-2.0904,-2.0914,-2.0952,-2.0965,-2.0983,-2.0997,-2.1041,-2.1067,-2.1072,-2.1086,-2.1116,-2.1143,-2.1144,-2.1156,-2.1173,-2.1172,-2.1098,-2.1088,-2.1079,-2.1068,-2.1175,-2.1175,-2.1248,-2.1249,-2.1249]},{"header":{"parameterUnit":"m.s-1","parameterCategory":1,"la1":30.2991,"la2":30.254,"lo1":-89.0895,"lo2":-89.0444,"dy":0.0017,"dx":0.0017,"nx":28,"ny":28,"refTime":"2023-10-07T21:00:00:Z","depth":0,"parameterNumber":3,"parameterNumberName":"V-component_of_WINDS"},"data":[0,0,0,0,0,0,0,0,0,0,0,0,0,0,0,0,0,0,0,0,0,0,0,0,0,0,0,0,0,0,0,0,0,0,0,0,0,0,0,0,0,0,0,0,0,0,0,0,0,0,0,0,0,0,0,0,0,0,-7.8027,-7.8028,0,-7.8127,-7.8128,-7.8129,-7.8069,-7.8066,-7.8063,-7.806,-7.8156,-7.8161,-7.8166,0,0,0,0,0,0,0,0,0,0,0,0,0,-7.7778,-7.7783,-7.8027,-7.8028,-7.8029,-7.8127,-7.8128,-7.8129,-7.8069,-7.8066,-7.8062,-7.8059,-7.8154,-7.8161,-7.8167,0,0,0,0,0,0,0,0,0,0,0,0,0,-7.7883,-7.7784,-7.8026,-7.8011,-7.8011,-7.8126,-7.8128,-7.813,-7.807,-7.8066,-7.8061,-7.8057,-7.8152,-7.816,-7.8168,-7.8302,0,0,-7.8192,-7.8195,0,0,0,0,0,0,0,0,-7.7877,-7.7892,-7.8012,-7.8012,-7.8012,-7.8081,-7.8075,-7.8187,-7.8071,-7.8047,-7.806,-7.8055,-7.8134,-7.8143,-7.8171,-7.8307,-7.8311,-7.8192,-7.8197,-7.82,-7.8203,0,0,0,0,0,0,0,-7.7869,-7.7887,-7.8066,-7.8014,-7.8014,-7.7997,-7.8007,-7.8096,-7.8113,-7.8049,-7.8045,-7.8058,-7.8133,-7.8164,-7.8173,-7.8312,-7.8192,-7.8199,-7.8204,-7.8207,-7.8564,-7.8569,0,0,0,0,0,0,-7.7864,-7.7881,-7.8063,-7.8069,-7.7933,-7.8005,-7.8017,-7.8063,-7.8112,-7.8116,-7.8061,-7.8055,-7.8153,-7.8164,-7.8176,-7.8338,-7.82,-7.8208,-7.8212,-7.8559,-7.8565,-7.857,0,0,0,0,0,0,-7.7859,-7.7881,-7.8059,-7.7974,-7.7996,-7.8014,-7.8067,-7.8067,-7.8098,-7.8122,-7.8124,-7.809,-7.815,-7.8165,-7.8272,-7.8341,-7.8211,-7.8218,-7.8554,-7.8561,-7.8568,-7.8663,0,0,0,0,0,0,-7.7852,-7.788,-7.7932,-7.7976,-7.8001,-7.8155,-7.8071,-7.8072,-7.8112,-7.8105,-7.8149,-7.8152,-7.8147,-7.8261,-7.828,-7.8349,-7.8224,-7.8548,-7.8557,-7.8566,-7.8653,-7.8672,-7.8688,0,0,0,0,0,-7.7844,-7.7953,-7.7935,-7.7957,-7.8067,-7.8159,-7.8173,-7.8167,-7.8118,-7.8171,-7.8186,-7.8151,-7.833,-7.8272,-7.8293,-7.8366,-7.8543,-7.8554,-7.8565,-7.8646,-7.8668,-7.8688,0,0,0,0,0,0,-7.7913,-7.7958,-7.7939,-7.8066,-7.811,-7.8149,-7.8215,-7.8191,-7.8248,-7.8238,-7.8226,-7.8236,-7.8348,-7.8367,-7.8302,-7.8499,-7.8429,-7.8444,-7.8483,-7.8505,-7.8522,-7.8515,-7.8231,0,0,0,0,0,-7.7944,-7.8018,-7.8052,-7.8161,-7.8184,-7.8196,-7.8236,-7.8228,-7.8271,-7.8289,-7.8312,-7.8354,-7.842,-7.8463,-7.8525,-7.8656,-7.8665,-7.8716,-7.8733,-7.8747,-7.8761,-7.8833,-7.8856,-7.8606,-7.8606,-7.8606,0,0,-7.8007,-7.8041,-7.8087,-7.8176,-7.8208,-7.8283,-7.8211,-7.8293,-7.8348,-7.83,-7.8404,-7.8423,-7.8468,-7.8589,-7.8642,-7.8608,-7.8832,-7.8761,-7.8772,-7.8778,-7.8846,-7.887,-7.8891,-7.8613,-7.8612,-7.8611,0,0,-7.8161,-7.8194,-7.829,-7.8325,-7.8376,-7.8384,-7.8407,-7.8451,-7.8462,-7.8566,-7.8532,-7.8596,-7.871,-7.8745,-7.8777,-7.8946,-7.8916,-7.8966,-7.9057,-7.9127,-7.9147,-7.9165,-7.9226,-7.9248,-7.898,-7.898,-7.898,0,-7.8233,-7.8347,-7.8341,-7.8426,-7.8466,-7.8429,-7.8525,-7.8558,-7.8627,-7.8654,-7.8615,-7.8758,-7.8786,-7.8914,-7.8956,-7.8983,-7.9009,-7.8961,-7.9145,-7.9163,-7.9179,-7.9237,-7.926,-7.8986,-7.8985,-7.8985,-7.8984,0,-7.8432,-7.8512,-7.8582,-7.8653,-7.87,-7.879,-7.8797,-7.8845,-7.8833,-7.8845,-7.8951,-7.8984,-7.9053,-7.9082,-7.907,-7.921,-7.9187,-7.9147,-7.9076,-7.9209,-7.9263,-7.9286,-7.8994,-7.8992,-7.899,-7.8989,0,0,-7.8632,-7.8701,-7.8727,-7.8759,-7.8814,-7.8874,-7.8962,-7.9032,-7.9075,-7.9123,-7.9196,-7.9294,-7.9258,-7.9295,-7.9286,-7.9348,-7.9482,-7.93,-7.9301,-7.9334,-7.9638,-7.9669,-7.9695,-7.9462,-7.9466,-7.9469,-7.9635,0,-7.8791,-7.8948,-7.8946,-7.9091,-7.9165,-7.9131,-7.9208,-7.9249,-7.9263,-7.9325,-7.9338,-7.9409,-7.9355,-7.9377,-7.9437,-7.9453,-7.9543,-7.9441,-7.9529,-7.9533,-7.952,-7.9723,-7.9756,-7.991,-7.9656,-7.9659,-7.9662,0,-7.8997,-7.9056,-7.9209,-7.9256,-7.9286,-7.9356,-7.942,-7.9481,-7.9527,-7.9532,-7.9575,-7.9557,-7.9645,-7.9572,-7.9693,-7.9624,-7.966,-7.9674,-7.9679,-7.9688,-7.9606,-7.9738,-7.9959,-7.9983,-7.9695,-7.9693,-7.969,0,-7.9129,-7.9246,-7.9354,-7.9382,-7.9438,-7.9488,-7.9514,-7.9556,-7.9598,-7.9654,-7.9681,-7.9745,-7.978,-7.983,-7.9829,-7.9776,-7.9953,-7.9879,-7.9959,-7.9959,-7.9998,-7.9996,-8.0229,-8.002,-8.002,-8.0019,-8.0019,0,-7.9307,-7.9402,-7.9414,-7.9481,-7.9586,-7.9582,-7.9686,-7.9706,-7.9745,-7.9813,-7.9786,-7.9851,-7.9846,-7.9911,-7.991,-8.0012,-8.0027,-8.0033,-8.0032,-8.0036,-8.0036,-8.006,-8.005,-8.0025,-8.0024,-8.0023,-8.0022,0,-7.9472,-7.9485,-7.96,-7.9645,-7.9658,-7.9735,-7.9772,-7.9834,-7.9846,-7.9933,-7.9953,-7.997,-8.0045,-8.005,-8.0135,-8.0135,-8.0258,-8.0244,-8.0244,-8.0242,-8.0322,-8.0315,-8.0579,-8.0614,-8.0382,-8.0384,-8.0386,0,-7.9586,-7.9659,-7.9713,-7.9758,-7.9788,-7.986,-7.9905,-7.9903,-7.995,-8.001,-8.0065,-8.0138,-8.0196,-8.0317,-8.0336,-8.0401,-8.039,-8.0478,-8.0399,-8.0402,-8.0392,-8.0389,-8.0396,-8.0493,-8.0496,-8.0498,-8.05,0,-7.9785,-7.9789,-7.9855,-7.9925,-7.9979,-8.0033,-8.0082,-8.012,-8.0125,-8.0179,-8.0257,-8.0303,-8.0392,-8.0464,-8.0529,-8.0552,-8.0527,-8.0525,-8.0547,-8.0552,-8.0549,-8.0553,-8.0287,-8.0518,-8.0517,-8.0515,-8.0514,-8.0513,-7.9929,-7.9993,-8.0043,-8.0118,-8.0156,-8.0204,-8.0265,-8.0286,-8.0352,-8.0426,-8.042,-8.0507,-8.0551,-8.0636,-8.0665,-8.0731,-8.0701,-8.0732,-8.0741,-8.0749,-8.0758,-8.0539,-8.0742,-8.0742,-8.0741,-8.0741,-8.0741,0,-8.0129,-8.0159,-8.0229,-8.0301,-8.0361,-8.0334,-8.0388,-8.0439,-8.0517,-8.0561,-8.0621,-8.071,-8.0781,-8.0807,-8.0875,-8.0924,-8.0914,-8.0942,-8.0938,-8.0945,-8.0781,-8.0755,-8.0949,-8.0949,-8.0949,-8.0949,-8.0949,-8.0948,-8.024,-8.0348,-8.0357,-8.0483,-8.0512,-8.0599,-8.0633,-8.0677,-8.0713,-8.0815,-8.0875,-8.0892,-8.0929,-8.1001,-8.1064,-8.107,-8.1096,-8.113,-8.113,-8.0977,-8.0956,-8.0936,-8.0912,-8.1135,-8.1135,-8.1289,-8.129,-8.1291]}]]